Location: Normandy Village
(37.8755°N, 122.2655°W)
Time: 09:09:26
(UTC+00:00)

Cosmos 2266 Rocket - Pass Details

Date: 22 September 2019
Orbit: 934 x 1008 km, 82.9° (Epoch: 15 October)

Event Time Altitude Azimuth Distance (km) Brightness Sun altitude
Rises 12:14:22 0° 178° (S) 3,616 6.8 -20.7°
Reaches altitude 10° 12:16:52 10° 176° (S) 2,665 6.2 -20.2°
Maximum altitude 12:22:55 71° 94° (E) 994 4.2 -19.1°
Drops below altitude 10° 12:28:55 10° 11° (NNE) 2,653 6.6 -18.0°
Sets 12:31:24 0° 10° (N) 3,599 7.3 -17.5°
